Weather History for Mora, MN

Change the Weather History Date:

Saturday, November 22, 2014

  Actual Average Record
Temperature  
Mean Temperature 32 °F -  
Max Temperature 33 °F 36 °F 65 °F (1990)
Min Temperature 32 °F 15 °F -3 °F (1938)
Degree Days  
Heating Degree Days 32    
Moisture  
Dew Point 31 °F    
Average Humidity 95    
Maximum Humidity 100    
Minimum Humidity 87    
Precipitation  
Precipitation 0.00 in - - ()
Sea Level Pressure  
Sea Level Pressure 29.61 in    
Wind  
Wind Speed 7 mph (SSE)    
Max Wind Speed 10 mph    
Max Gust Speed 16 mph    
Visibility 3 miles    
Events Fog    
Averages and records for this station are not official NWS values.
T = Trace of Precipitation, MM = Missing Value Source: NWS Daily Summary

Daily Weather History Graph

Daily Weather History Graph

Search for Another Location

Airport:

Trip Planner

Search our weather history database for the weather conditions in past years. The results will help you decide how hot, cold, wet, or windy it might be!

Date:

Astronomy

Nov. 22, 2014 Rise Set
Actual Time 7:22 AM CST 4:35 PM CST
Civil Twilight 6:49 AM CST 5:08 PM CST
Nautical Twilight 6:13 AM CST 5:44 PM CST
Astronomical Twilight 5:37 AM CST 6:20 PM CST
Moon 7:17 AM CST (11/22) 5:07 PM CST (11/22)
Length of Visible Light 10h 18m
Length of Day
9h 12m
New Moon, 0% of the Moon is Illuminated
Nov 22
New Moon
Nov 29
First Quarter
Dec 6
Full
Dec 14
Last Quarter
Dec 21
New

Hourly Weather History & Observations

Time (CST) Temp. Windchill Dew Point Humidity Pressure Visibility Wind Dir Wind Speed Gust Speed Precip Events Conditions
12:05 AM - - - N/A% - - North - - N/A   Unknown
12:25 AM - - - N/A% - - North - - N/A   Unknown
12:45 AM - - - N/A% - - North - - N/A   Unknown
1:05 AM - - - N/A% - - North - - N/A   Unknown
1:25 AM - - - N/A% - - North - - N/A   Unknown
1:45 AM - - - N/A% - - North - - N/A   Unknown
2:05 AM - - - N/A% - - North - - N/A   Unknown
2:25 AM - - - N/A% - - North - - N/A   Unknown
2:45 AM - - - N/A% - - North - - N/A   Unknown
3:05 AM - - - N/A% - - North - - N/A   Unknown
3:25 AM - - - N/A% - - North - - N/A   Unknown
3:45 AM - - - N/A% - - North - - N/A   Unknown
4:05 AM - - - N/A% - - North - - N/A   Unknown
4:25 AM - - - N/A% - - North - - N/A   Unknown
4:45 AM - - - N/A% - - North - - N/A   Unknown
5:05 AM - - - N/A% - - North - - N/A   Unknown
5:25 AM - - - N/A% - - North - - N/A   Unknown
5:45 AM - - - N/A% - - North - - N/A   Unknown
6:05 AM - - - N/A% - - North - - N/A   Unknown
6:25 AM - - - N/A% - - North - - N/A   Unknown
6:45 AM - - - N/A% - - North - - N/A   Unknown
7:05 AM - - - N/A% - - North - - N/A   Unknown
7:25 AM - - - N/A% - - North - - N/A   Unknown
7:45 AM - - - N/A% - - North - - N/A   Unknown
8:05 AM - - - N/A% - - North - - N/A   Unknown
8:25 AM - - - N/A% - - North - - N/A   Unknown
8:45 AM - - - N/A% - - North - - N/A   Unknown
9:05 AM - - - N/A% - - North - - N/A   Unknown
9:25 AM - - - N/A% - - North - - N/A   Unknown
9:45 AM - - - N/A% - - North - - N/A   Unknown
10:05 AM - - - N/A% - - North - - N/A   Unknown
10:25 AM - - - N/A% - - North - - N/A   Unknown
10:45 AM - - - N/A% - - North - - N/A   Unknown
11:05 AM - - - N/A% - - North - - N/A   Unknown
11:25 AM - - - N/A% - - North - - N/A   Unknown
11:45 AM - - - N/A% - - North - - N/A   Unknown
12:05 PM - - - N/A% - - North - - N/A   Unknown
12:29 PM - - - N/A% - - North - - N/A   Unknown
12:40 PM 33.8 °F 26.4 °F 30.2 °F 87% 29.68 in 5.0 mi South 9.2 mph - N/A   Unknown
1:00 PM 33.8 °F 26.4 °F 30.2 °F 87% 29.68 in 5.0 mi SSW 9.2 mph - N/A   Haze
1:20 PM 33.8 °F 27.7 °F 30.2 °F 87% 29.68 in 5.0 mi South 6.9 mph - N/A   Haze
1:40 PM 33.8 °F 27.0 °F 30.2 °F 87% 29.67 in 5.0 mi SSW 8.1 mph - N/A   Overcast
2:00 PM 33.8 °F 27.0 °F 30.2 °F 87% 29.67 in 5.0 mi South 8.1 mph - N/A   Overcast
2:20 PM 33.8 °F 27.0 °F 30.2 °F 87% 29.67 in 5.0 mi South 8.1 mph - N/A   Overcast
2:40 PM 33.8 °F 27.0 °F 30.2 °F 87% 29.67 in 5.0 mi South 8.1 mph - N/A   Overcast
3:00 PM 33.8 °F 26.4 °F 30.2 °F 87% 29.66 in 4.0 mi South 9.2 mph - N/A   Overcast
3:20 PM 33.8 °F 28.6 °F 30.2 °F 87% 29.66 in 4.0 mi South 5.8 mph - N/A   Overcast
4:00 PM 33.8 °F 30.8 °F 32.0 °F 93% 29.65 in 4.0 mi SE 3.5 mph - N/A   Overcast
4:20 PM 33.8 °F 28.6 °F 32.0 °F 93% 29.65 in 4.0 mi South 5.8 mph - N/A   Overcast
4:40 PM 33.8 °F 27.7 °F 32.0 °F 93% 29.65 in 3.0 mi SSE 6.9 mph - N/A   Overcast
5:00 PM 33.8 °F 28.6 °F 32.0 °F 93% 29.64 in 3.0 mi SSE 5.8 mph - N/A   Overcast
5:20 PM 33.8 °F 27.7 °F 32.0 °F 93% 29.63 in 3.0 mi South 6.9 mph - N/A   Overcast
5:40 PM 32.0 °F 25.6 °F 32.0 °F 100% 29.63 in 4.0 mi SSE 6.9 mph - N/A   Overcast
6:20 PM 32.0 °F 23.6 °F 32.0 °F 100% 29.62 in 3.0 mi SSE 10.4 mph 16.1 mph N/A   Overcast
6:40 PM 32.0 °F 24.8 °F 32.0 °F 100% 29.61 in 2.0 mi SSE 8.1 mph - N/A   Overcast
7:00 PM 32.0 °F 25.6 °F 32.0 °F 100% 29.60 in 1.8 mi SE 6.9 mph - N/A   Overcast
7:20 PM 33.8 °F 27.7 °F 32.0 °F 93% 29.59 in 1.2 mi SSE 6.9 mph - N/A   Overcast
7:40 PM 32.0 °F 25.6 °F 32.0 °F 100% 29.59 in 1.2 mi SSE 6.9 mph - N/A   Overcast
8:00 PM 32.0 °F 24.2 °F 32.0 °F 100% 29.60 in 1.2 mi South 9.2 mph - N/A   Overcast
8:20 PM 32.0 °F 23.6 °F 32.0 °F 100% 29.60 in 1.2 mi South 10.4 mph - N/A   Overcast
8:40 PM 32.0 °F 26.4 °F 32.0 °F 100% 29.59 in 1.5 mi SSE 5.8 mph - N/A   Overcast
9:00 PM 32.0 °F 25.6 °F 32.0 °F 100% 29.58 in 1.5 mi SE 6.9 mph - N/A   Overcast
9:20 PM 32.0 °F 27.5 °F 32.0 °F 100% 29.57 in 1.2 mi SE 4.6 mph - N/A   Overcast
9:40 PM 32.0 °F 27.5 °F 32.0 °F 100% 29.57 in 1.0 mi SSE 4.6 mph - N/A   Overcast
10:00 PM 32.0 °F 27.5 °F 32.0 °F 100% 29.54 in 0.8 mi SE 4.6 mph - N/A   Overcast
10:20 PM 32.0 °F 27.5 °F 32.0 °F 100% 29.54 in 0.8 mi SE 4.6 mph - N/A   Overcast
10:40 PM 32.0 °F 28.7 °F 32.0 °F 100% 29.54 in 0.5 mi SE 3.5 mph - N/A Fog Fog
11:00 PM 32.0 °F 27.5 °F 32.0 °F 100% 29.52 in 0.5 mi ESE 4.6 mph - N/A Fog Fog
11:20 PM 32.0 °F 26.4 °F 32.0 °F 100% 29.51 in 0.8 mi ESE 5.8 mph - N/A   Overcast
11:40 PM 33.8 °F 29.6 °F 32.0 °F 93% 29.50 in 0.8 mi ESE 4.6 mph - N/A   Overcast